This is the latest recevied weather packets stored in our database for station/object DC1MBB-9. If no packets are shown the sender has not sent any weather packets the latest 10 day(s).
| Time | Temp. | Humidity | Pressure | Rain* | Wind** | Luminosity | Snow |
|---|---|---|---|---|---|---|---|
| 1777554534 | 26.67° C | 10% | 968 hPa | - | - | - | - |
| 1777554173 | 30.56° C | - | - | - | - | - | - |
| 1777553812 | 30° C | - | - | - | - | - | - |
| 1777553451 | 24.44° C | 11% | 968 hPa | - | - | - | - |
| 1777553090 | 23.33° C | 11% | 968 hPa | - | - | - | - |
| 1777552730 | 22.22° C | 12% | 968 hPa | - | - | - | - |
| 1777552369 | 20.56° C | 15% | 968 hPa | - | - | - | - |
| 1777552008 | 20° C | 16% | 968 hPa | - | - | - | - |
| 1777551647 | 19.44° C | 15% | 968 hPa | - | - | - | - |
| 1777551286 | 18.89° C | 16% | 968 hPa | - | - | - | - |
| 1777550926 | 18.33° C | 19% | 968 hPa | - | - | - | - |
| 1777550565 | 17.78° C | 17% | 968 hPa | - | - | - | - |
| 1777550204 | 17.78° C | 17% | 968 hPa | - | - | - | - |
| 1777549843 | 17.22° C | 18% | 968 hPa | - | - | - | - |
| 1777549483 | 17.22° C | 19% | 968 hPa | - | - | - | - |
| 1777549122 | 16.67° C | 19% | 968 hPa | - | - | - | - |
| 1777548761 | 16.11° C | 20% | 968 hPa | - | - | - | - |
| 1777548400 | 15.56° C | 19% | 968 hPa | - | - | - | - |
| 1777548040 | 15.56° C | 20% | 968 hPa | - | - | - | - |
| 1777547679 | 15.56° C | 21% | 968 hPa | - | - | - | - |
| 1777547318 | 15° C | 20% | 968 hPa | - | - | - | - |
| 1777546957 | 15° C | 20% | 968 hPa | - | - | - | - |
| 1777546596 | 15° C | 21% | 968 hPa | - | - | - | - |
| 1777546236 | 14.44° C | 20% | 968 hPa | - | - | - | - |
| 1777545875 | 14.44° C | 22% | 968 hPa | - | - | - | - |
* Rain since midnight (hover to see other rain measurements)
** Current wind speed in m/s (hover to see current wind gust speed)